Wind_Speed
11 11 12 12 12 13 13 13 13 14 14 14 14 14 13 13 12 11 10 8 8 9 11 12 12 12 12 12 11 11 11 9 8 6 4 4 7 10 11 13 16 17 18 20 21 21 19 17 16 15 12 10 9 8 8 6 5 6 5 7 7 6 4 4 5 5 3 4 4 5 6 6 5 6 6 7 9 10 12 12 11 11 11 12 12 11 11 12
11 12 12 12 12 12 13 13 13 13 13 14 14 14 14 13 13 12 11 10 9 8 9 11 13 13 13 13 13 13 12 11 10 7 4 4 6 10 11 12 16 16 18 20 21 21 21 19 17 15 13 12 11 8 7 6 5 6 5 6 5 4 3 4 5 5 4 4 5 6 7 7 7 8 8 8 9 10 11 11 11 11 11 13 12 10 10 11
12 12 12 12 12 12 12 13 13 13 13 13 14 14 14 14 13 13 12 12 10 9 9 10 12 13 14 14 15 15 14 13 10 6 6 6 5 8 12 13 15 16 17 20 21 22 21 20 18 16 15 14 12 9 8 7 6 7 5 4 4 3 4 4 5 6 5 5 6 6 8 8 8 8 8 8 9 10 9 9 10 10 10 12 11 9 9 10
14 14 13 13 13 12 12 12 13 13 13 13 13 13 14 14 14 13 13 12 12 11 10 9 10 12 14 15 15 16 17 15 10 8 8 7 6 7 11 13 14 17 17 18 20 21 20 20 19 17 16 15 14 11 10 9 7 9 4 5 3 3 4 4 6 6 6 6 6 7 8 9 8 7 8 9 10 9 8 8 9 9 10 12 11 9 9 10
14 14 15 14 14 14 13 13 13 13 13 13 13 13 13 13 13 13 13 13 12 13 12 10 9 10 13 15 16 17 19 16 11 11 9 8 9 7 9 11 13 17 17 16 18 20 19 19 19 18 17 16 15 14 12 10 9 9 6 3 4 6 4 5 7 6 7 7 6 7 7 8 8 7 9 11 9 8 8 8 8 9 10 10 10 10 10 10
14 14 15 15 15 15 15 14 14 13 13 13 13 13 13 13 13 13 13 13 12 13 13 12 11 10 10 13 16 18 20 17 12 11 10 9 11 10 9 10 12 16 17 15 16 19 19 18 18 18 17 17 17 16 14 13 11 10 8 6 7 7 6 5 7 8 9 8 7 7 6 8 8 8 10 10 8 8 9 10 9 8 9 8 8 10 11 12
14 14 14 14 15 15 15 15 15 14 14 13 13 13 14 13 13 13 13 13 12 12 12 13 12 12 11 11 15 17 19 19 14 13 12 11 12 12 11 10 11 14 16 16 16 18 19 18 18 19 18 18 18 17 15 14 14 11 9 9 8 8 8 7 7 9 10 9 8 7 7 8 8 8 8 8 8 9 10 11 11 10 9 7 8 10 12 13
14 14 14 14 15 15 15 15 15 15 14 14 14 14 14 14 14 13 13 13 13 13 12 12 12 13 12 11 13 15 17 18 17 17 16 13 13 14 13 12 11 13 17 18 17 18 20 18 19 20 19 19 20 18 17 16 15 13 10 9 10 9 8 8 8 10 12 11 9 8 8 8 8 7 7 7 7 9 11 11 12 12 11 9 8 9 11 12
15 15 15 15 15 15 15 15 15 15 15 15 15 14 14 14 14 14 14 14 14 14 13 12 12 13 13 13 13 12 13 16 18 20 19 16 15 15 15 14 12 13 16 19 18 19 19 20 21 21 20 21 21 20 19 17 13 14 14 11 11 9 5 5 8 11 13 11 10 9 9 8 8 8 7 7 7 8 10 11 13 13 13 11 9 10 11 12
15 15 15 15 15 15 15 15 15 15 15 15 15 15 15 15 15 15 14 14 14 14 14 13 13 13 13 13 13 12 10 14 18 21 20 18 17 17 17 16 14 13 15 18 19 18 18 21 22 21 24 25 24 23 22 19 13 13 16 14 13 10 6 6 9 12 13 12 11 10 9 8 8 8 7 8 8 8 8 10 12 12 12 12 11 11 11 12
15 15 15 14 14 15 15 15 15 15 15 15 16 16 15 15 16 16 15 15 15 14 14 14 14 14 14 13 12 11 11 13 16 19 21 20 19 19 19 17 16 15 15 17 19 19 20 23 25 25 26 25 24 24 22 23 19 12 13 14 14 12 9 9 11 14 15 13 12 11 10 9 8 8 7 8 8 9 8 9 10 10 10 11 12 12 11 11
16 16 16 15 15 15 15 15 15 15 15 15 16 16 16 16 16 17 17 16 16 15 14 14 14 14 15 13 11 11 12 13 14 16 20 21 20 20 21 20 19 17 16 18 19 21 23 25 26 25 24 22 21 21 21 24 23 16 13 11 11 11 10 11 13 15 15 13 13 13 11 10 9 8 8 8 8 9 9 8 8 8 9 11 11 11 11 11
18 18 18 17 17 16 16 16 16 15 15 15 16 16 16 16 17 17 18 18 17 17 15 15 15 14 15 14 11 11 11 13 14 14 16 20 21 21 22 23 21 19 18 19 21 23 24 25 24 22 23 24 24 22 21 25 23 18 13 10 11 12 12 14 15 16 15 13 13 13 11 10 10 9 9 9 8 8 9 8 8 7 8 10 11 11 11 11
19 19 19 19 18 18 18 18 17 16 16 16 16 16 16 16 17 17 18 19 19 18 17 16 16 15 16 14 11 12 11 12 14 14 13 16 20 22 23 24 24 22 20 20 22 23 25 24 23 22 23 24 27 27 23 25 23 18 14 13 14 12 11 14 16 16 15 14 14 13 11 9 10 10 10 10 8 8 9 9 9 8 8 9 11 11 11 11
20 20 20 20 20 19 20 19 19 18 17 17 17 17 17 16 17 17 18 19 19 20 19 18 17 16 17 15 12 12 12 11 13 14 13 13 17 21 24 25 26 24 22 22 22 24 26 26 23 22 22 22 26 26 24 25 23 19 16 13 14 11 11 15 16 16 15 15 15 14 11 9 10 11 11 10 9 9 8 9 10 10 9 9 10 11 11 11
22 22 22 21 21 20 21 21 20 19 18 18 18 18 18 18 17 17 18 18 19 20 20 19 19 18 18 17 14 12 11 12 13 14 13 12 14 18 22 25 26 25 25 24 23 25 27 27 24 22 22 24 25 22 22 25 22 19 16 12 15 14 13 16 16 17 17 16 15 15 13 9 9 11 11 11 11 10 8 9 10 11 10 10 10 11 11 11
24 24 25 24 23 22 22 23 22 21 20 19 20 19 19 19 18 18 18 18 19 19 21 21 20 20 19 18 17 14 11 12 14 14 13 12 13 15 19 24 27 27 27 26 24 26 29 29 27 25 25 25 24 23 25 27 22 18 14 15 17 13 12 14 14 18 19 17 16 16 15 11 10 11 12 12 12 11 9 9 9 11 12 11 11 10 11 11
26 26 27 26 25 24 24 25 24 23 22 22 21 20 20 20 20 20 19 18 19 20 21 21 20 21 20 19 19 16 13 14 15 15 13 13 14 14 17 21 26 28 28 28 26 27 30 30 30 28 27 26 26 28 29 27 21 15 16 19 15 11 14 17 14 18 19 18 17 17 16 13 11 13 13 14 14 12 9 9 8 9 11 12 12 11 10 10
27 27 28 29 28 27 27 27 26 25 25 24 23 23 22 21 21 21 19 19 19 20 21 21 21 23 22 21 21 18 16 16 17 16 14 13 14 15 16 18 23 27 29 29 28 29 30 32 32 29 28 27 26 25 25 24 19 16 19 20 13 12 17 17 17 19 19 19 18 17 18 16 13 14 15 15 15 14 12 11 10 9 9 10 11 12 12 11
27 28 29 30 30 29 29 29 28 28 28 27 26 26 24 23 23 22 20 21 21 21 21 21 21 23 24 23 22 21 19 19 18 18 16 14 14 15 17 18 20 25 29 29 30 30 30 33 33 28 27 26 23 21 23 24 21 18 20 19 16 15 16 16 19 22 19 21 20 18 19 17 15 15 16 17 16 15 15 13 12 11 10 10 10 11 12 12
28 29 29 31 31 30 30 30 30 30 30 30 29 28 26 25 25 24 21 22 23 22 22 22 21 22 24 24 23 23 22 21 20 20 18 16 15 14 16 18 19 21 26 29 31 32 34 35 32 28 28 26 24 23 25 26 24 21 21 20 21 19 15 15 19 22 21 24 23 20 20 19 18 17 17 18 17 16 16 15 13 12 12 12 11 11 12 12
29 29 30 31 32 31 31 31 30 30 31 31 30 30 29 28 27 26 24 23 24 25 23 22 22 22 24 25 24 24 24 23 23 21 19 18 17 15 15 17 19 19 23 30 33 35 36 35 31 30 30 28 28 27 27 28 27 26 24 22 23 21 17 16 18 23 23 24 24 21 21 20 19 20 20 20 18 17 18 16 13 13 12 12 12 12 13 13
29 30 31 32 33 33 32 32 31 31 32 32 31 31 30 30 29 29 27 25 25 27 25 23 23 23 25 26 24 25 25 25 24 23 21 20 19 18 16 16 18 20 24 29 33 35 35 32 29 31 33 31 30 30 29 29 30 30 24 22 24 22 19 20 24 29 27 22 23 23 22 20 21 23 22 21 21 21 19 16 15 15 13 13 13 13 13 13
30 30 32 33 34 35 34 34 33 33 33 33 32 32 31 32 31 31 30 27 26 29 28 25 23 24 26 26 25 26 26 25 25 24 22 21 22 21 18 16 17 20 24 26 30 34 32 30 30 32 34 33 33 33 31 31 32 33 27 24 25 21 20 23 24 28 28 24 24 25 24 23 24 25 22 21 21 21 19 17 17 17 16 16 15 14 14 13
33 32 33 34 35 37 36 36 36 35 35 35 34 34 33 33 33 32 32 31 28 29 30 29 25 25 26 26 27 27 27 26 26 25 23 23 24 23 20 20 19 19 21 23 28 32 32 33 34 35 36 36 37 36 32 31 34 35 32 29 25 20 21 24 23 26 26 25 26 28 28 26 25 25 23 23 24 21 20 20 20 19 19 19 18 17 16 15
35 35 35 35 36 37 38 38 37 37 37 36 36 35 35 34 34 33 33 34 31 29 31 31 28 27 26 27 28 27 28 28 27 26 24 24 25 24 23 23 21 20 21 23 27 30 34 36 36 36 37 37 40 37 33 34 36 37 35 31 28 23 23 25 25 27 28 26 27 29 32 28 24 26 25 24 25 24 23 24 23 22 21 21 20 19 17 16
38 37 37 37 38 38 39 39 39 39 38 38 37 37 37 36 35 34 34 35 35 31 29 31 31 29 28 29 28 28 30 29 27 28 27 25 25 25 26 24 22 21 21 23 27 29 31 34 36 38 38 40 42 39 36 37 37 37 33 27 27 28 27 28 27 28 29 27 27 28 31 30 26 26 26 25 26 26 27 27 25 25 24 22 22 22 19 17
40 39 38 39 39 39 40 40 40 40 39 39 39 39 39 39 37 37 36 37 39 34 29 30 32 31 30 30 29 30 31 28 27 29 28 27 26 26 27 26 23 22 22 24 26 25 27 32 36 38 40 42 40 39 39 37 36 37 32 26 26 27 28 30 28 27 30 28 28 27 29 32 32 29 27 28 29 29 29 29 26 25 24 22 23 24 21 18
44 42 40 40 40 40 41 42 42 42 41 40 41 41 41 41 40 39 39 40 40 36 32 31 33 33 33 32 31 32 31 29 30 30 27 27 28 27 27 27 25 24 24 26 25 25 27 31 35 38 40 41 39 41 43 39 36 36 36 33 27 22 24 27 28 27 29 31 30 27 26 30 34 33 31 31 31 28 27 28 27 27 25 23 24 25 23 20
46 47 46 45 44 43 43 43 44 44 44 43 43 42 42 42 42 42 44 44 40 37 35 33 33 34 34 34 34 34 32 31 33 29 27 29 29 29 29 28 29 27 26 26 26 27 28 29 34 36 36 38 42 44 42 39 38 37 38 34 27 25 28 30 32 32 32 34 31 27 28 29 32 34 33 34 31 25 25 28 27 26 24 24 26 29 26 20
48 49 50 50 49 47 46 46 46 46 46 46 45 45 44 44 45 45 47 46 41 41 40 35 35 36 35 34 35 35 34 34 35 32 30 32 30 30 31 31 31 29 28 28 26 27 29 29 31 32 32 37 44 46 41 41 43 42 41 37 29 30 32 31 33 35 37 37 31 27 28 28 32 32 31 34 33 27 27 28 26 24 24 26 27 29 27 21
52 52 52 52 52 51 51 49 49 49 49 49 48 48 47 47 48 47 47 46 43 44 43 40 39 38 36 36 36 37 37 36 37 36 33 33 32 32 32 32 33 31 30 30 27 26 30 30 29 29 30 36 43 45 44 45 47 48 47 42 35 32 32 31 33 35 38 36 29 27 29 29 32 31 30 35 31 27 29 29 27 24 22 24 24 24 26 23
55 55 55 55 54 53 53 52 52 52 52 51 52 51 51 51 50 47 47 48 46 46 46 44 42 40 37 38 38 39 39 38 40 40 36 35 34 33 33 33 34 35 32 31 30 29 30 31 31 30 29 32 40 45 47 48 51 53 52 46 40 38 37 35 32 33 36 34 28 28 30 31 33 31 30 31 26 21 24 26 28 26 21 21 23 24 28 26
58 57 57 56 56 55 55 54 54 55 55 55 55 55 55 54 50 48 49 50 47 47 48 46 45 44 41 40 40 40 40 40 42 42 39 38 38 37 36 34 34 35 33 33 34 33 32 32 32 31 30 30 35 42 47 49 50 51 51 48 45 43 40 35 32 32 33 32 28 28 33 34 32 29 26 27 27 25 22 20 23 25 21 21 23 27 27 25
60 59 59 58 57 56 56 56 56 57 58 58 58 59 58 55 51 51 52 51 49 49 49 48 49 48 45 44 42 42 43 43 42 43 42 42 41 40 38 36 35 35 35 35 36 36 34 33 32 31 32 31 31 36 44 48 49 51 53 55 53 49 42 34 33 32 29 30 29 28 34 36 30 24 25 29 28 28 27 21 20 22 20 20 23 25 24 21
63 63 62 61 59 58 57 57 57 58 59 60 61 61 58 55 54 54 54 54 53 52 51 53 52 50 49 49 46 44 46 44 42 46 46 44 43 42 41 40 37 37 38 36 36 37 35 33 34 33 33 32 31 34 42 49 48 50 56 58 54 50 45 38 34 31 29 32 34 30 30 31 28 27 32 33 26 24 26 24 22 22 21 21 23 23 21 21
67 67 66 64 63 61 60 59 59 60 60 62 63 59 56 56 57 57 57 57 56 55 54 56 56 53 51 51 50 48 48 46 44 48 48 46 45 44 43 43 41 39 39 37 34 36 36 33 34 36 33 33 33 33 40 49 49 47 50 52 50 49 48 45 38 33 33 34 34 32 30 28 29 31 34 32 27 26 26 25 27 27 25 26 26 23 21 21
69 69 68 68 67 64 62 61 61 62 63 64 63 58 56 58 59 59 59 59 58 58 58 58 58 56 54 53 51 50 50 50 49 49 48 48 48 47 45 44 44 41 38 38 34 34 38 35 33 38 36 33 36 36 39 46 51 49 44 43 48 53 53 52 47 39 36 36 32 30 31 31 31 33 35 30 27 28 26 27 33 33 27 25 24 24 24 24
71 69 69 70 68 65 63 62 62 64 66 66 64 60 59 60 60 60 61 61 61 61 61 60 58 57 57 56 53 51 51 53 53 51 50 50 48 47 47 45 46 45 40 39 36 35 41 40 33 35 39 37 37 38 38 41 47 52 48 42 44 53 56 54 51 44 37 36 34 31 31 30 28 31 34 27 21 24 26 30 37 35 24 19 21 23 23 24
73 69 69 70 67 64 64 63 63 65 66 66 64 63 63 62 63 64 64 64 63 64 63 62 61 58 57 58 56 54 50 47 52 54 52 53 48 44 48 49 47 47 43 40 39 37 38 42 37 30 36 42 38 36 37 38 42 50 56 51 44 47 53 50 48 47 42 37 36 34 33 29 25 27 29 20 16 22 26 30 38 36 24 20 25 28 26 25
72 68 68 71 67 63 63 64 63 65 66 66 65 65 67 67 68 67 68 67 66 67 66 65 64 61 58 58 60 58 47 40 49 55 50 49 48 43 46 50 48 48 47 42 42 40 37 42 41 31 32 44 40 33 35 37 40 45 54 59 51 43 45 50 53 50 43 41 39 35 34 32 25 25 26 22 20 20 21 22 27 26 18 20 26 30 30 28
72 67 68 70 66 61 61 63 63 64 66 66 65 67 69 70 71 70 71 71 70 70 69 69 68 65 62 60 61 62 53 47 52 56 49 45 42 38 43 50 48 47 48 45 42 41 38 40 43 36 33 40 40 35 35 37 38 40 44 53 57 49 42 48 56 51 43 45 43 35 35 32 24 21 24 27 26 22 19 21 23 22 20 25 26 23 26 27
70 67 66 67 65 62 63 63 63 65 66 65 66 69 71 71 73 73 74 74 74 74 73 73 71 68 66 63 62 62 58 56 57 58 54 50 43 39 44 52 49 45 46 46 41 41 40 40 43 42 36 32 34 37 37 36 37 40 42 46 54 58 51 44 49 50 50 49 42 38 41 36 25 22 24 28 30 28 26 26 26 25 23 22 19 18 27 29
67 64 61 62 63 63 64 64 63 66 68 67 68 71 72 73 74 75 75 75 75 76 75 74 72 69 68 65 62 62 61 60 61 60 59 56 50 47 49 55 53 46 44 44 41 41 43 43 42 42 39 33 33 38 40 39 40 43 46 48 51 58 58 51 47 50 55 51 41 41 46 39 30 29 29 29 30 28 27 27 26 25 25 22 19 25 34 34
66 63 60 60 61 62 64 65 65 68 69 70 72 73 73 74 75 74 75 75 76 76 76 75 72 68 68 67 64 63 63 62 62 61 60 59 55 51 52 58 58 50 43 43 42 40 41 43 43 43 42 40 40 42 41 39 41 43 44 49 52 52 53 55 55 56 56 51 47 48 46 37 33 35 35 36 36 29 22 23 26 28 28 27 31 33 31 29
65 63 60 60 62 63 64 64 66 69 72 72 74 75 75 76 75 74 74 75 76 76 75 74 72 69 67 68 67 65 64 63 62 61 61 61 58 55 56 60 59 52 47 46 46 44 41 40 42 43 43 41 40 38 35 34 37 39 39 43 49 47 44 50 60 66 61 52 50 51 46 39 36 36 36 37 39 36 28 27 28 27 23 23 30 34 27 23
61 61 59 60 62 63 63 64 65 66 70 73 75 75 76 77 76 75 76 76 75 75 75 73 71 69 68 67 68 67 65 64 63 63 63 61 59 58 58 58 57 52 50 51 48 47 45 42 42 44 43 39 34 31 32 33 32 32 34 38 42 44 44 46 53 61 62 56 52 48 45 45 43 37 34 35 36 37 35 33 33 31 25 19 25 33 31 26
56 56 56 56 58 59 60 62 63 60 58 62 68 71 73 74 75 76 76 76 72 68 70 73 72 71 69 68 68 67 65 65 65 64 63 61 59 58 54 56 59 55 51 53 50 46 47 46 44 44 42 39 35 33 33 33 30 29 30 33 37 41 45 47 48 48 52 57 57 52 46 47 46 41 37 36 35 35 34 35 38 39 36 32 29 30 30 29
49 51 52 52 53 54 54 56 60 59 55 52 55 61 65 68 70 71 71 72 70 64 61 65 68 68 68 66 64 63 64 65 65 64 63 60 59 57 49 45 54 59 55 52 48 46 48 48 46 44 42 40 39 38 36 32 28 28 31 32 33 35 39 45 48 47 48 52 57 55 49 49 50 48 46 42 37 33 33 36 37 37 40 42 41 36 32 31
42 44 45 47 48 49 50 50 53 57 58 54 51 51 56 60 63 66 67 67 68 66 61 57 55 56 62 66 64 61 59 62 63 61 60 61 61 60 53 42 37 45 54 54 47 45 49 49 47 43 41 42 41 38 37 35 31 30 31 32 31 31 33 37 42 46 49 51 53 52 50 52 52 49 49 49 44 38 34 34 37 38 41 41 41 42 40 37
34 37 38 40 41 42 43 45 45 47 51 54 52 48 48 53 57 62 66 66 64 61 59 58 58 59 63 68 68 62 52 50 53 51 50 57 61 60 60 56 40 29 40 53 53 49 49 49 47 43 43 44 42 38 38 38 36 36 37 35 34 33 33 34 36 40 45 50 52 53 55 57 52 46 44 45 46 48 46 40 37 40 42 41 43 45 42 38
30 32 33 34 34 34 36 38 39 41 44 47 48 46 46 49 51 54 59 64 65 61 56 54 56 63 67 66 66 65 57 49 50 56 59 62 65 60 59 65 58 38 34 47 52 51 50 48 46 46 45 43 40 37 36 37 39 42 41 37 36 36 35 35 35 36 40 44 49 55 61 60 53 50 50 45 39 43 51 54 50 46 43 43 46 45 38 37
Wind_Direction
351 349 347 344 340 337 333 330 327 325 323 321 320 320 321 322 324 325 324 315 296 275 261 255 252 247 241 244 248 246 247 250 254 256 245 212 193 195 199 199 195 188 185 187 189 191 194 196 193 191 185 179 180 176 181 170 155 172 118 108 139 144 163 181 193 206 231 235 226 222 222 219 200 192 196 192 193 195 192 194 195 189 187 188 191 193 204 208
346 346 345 344 343 340 338 335 332 329 325 321 318 317 317 318 319 320 320 319 315 298 276 259 252 249 243 240 243 246 245 245 252 253 238 222 198 199 199 199 200 192 186 187 189 191 193 195 195 194 190 184 188 187 182 175 171 172 125 114 126 122 185 201 197 220 240 228 224 219 218 214 192 183 180 178 185 185 188 196 196 188 186 186 183 180 194 214
335 337 338 339 340 340 340 338 336 333 329 325 320 316 314 314 314 315 315 315 315 312 298 276 258 250 247 242 240 244 245 243 248 249 237 232 210 197 199 201 201 196 192 189 190 192 192 194 196 196 194 189 190 191 190 189 178 165 134 106 121 144 195 212 212 230 243 232 228 220 214 209 199 190 178 175 182 181 186 193 192 192 186 178 173 171 186 219
325 326 327 329 331 335 337 337 336 335 332 329 324 320 316 313 311 311 311 312 311 310 307 297 277 258 249 245 241 242 245 244 244 243 236 231 225 206 204 205 201 200 199 194 191 191 192 194 197 197 195 193 192 193 197 198 185 182 166 87 117 203 200 208 225 236 243 237 230 223 215 203 200 197 176 170 173 173 178 182 187 193 188 177 171 169 180 212
322 321 320 320 321 324 327 331 333 334 332 330 327 324 320 316 313 310 309 309 309 307 306 305 298 277 258 250 245 242 247 247 242 240 232 227 232 224 215 213 206 203 203 201 193 190 192 195 198 196 194 195 193 195 203 204 193 197 205 134 162 215 209 212 228 239 241 233 223 219 210 198 194 186 169 165 168 174 181 184 182 185 188 184 178 173 175 194
322 322 320 319 317 317 318 320 324 327 328 328 327 324 322 321 318 315 313 310 308 306 305 305 303 294 275 260 250 245 248 247 243 244 233 223 233 234 229 222 213 208 204 201 196 191 190 193 196 194 192 195 195 196 202 208 205 201 205 195 194 208 206 215 226 229 231 223 213 207 198 190 178 166 164 167 174 178 185 188 183 182 185 187 186 179 176 184
322 322 322 321 319 317 315 314 315 317 320 322 323 323 321 321 320 319 317 315 313 309 307 305 302 298 290 275 261 251 249 249 244 245 235 222 230 237 237 229 221 214 205 201 199 192 191 192 192 193 193 192 196 203 204 206 211 208 207 207 209 212 209 214 224 222 219 213 206 201 191 182 172 162 164 175 187 182 183 186 183 187 184 175 183 185 182 185
319 320 320 321 321 320 318 315 312 310 311 313 315 318 318 319 319 318 317 316 315 313 310 307 302 298 293 286 277 263 255 253 247 241 236 223 224 234 239 235 227 217 208 203 199 194 191 189 189 195 195 192 198 205 206 209 212 213 213 216 216 213 215 221 223 215 209 206 201 199 191 178 170 166 164 174 182 179 182 183 179 185 185 170 172 182 186 187
316 317 317 318 320 320 320 318 314 311 308 307 308 310 313 314 316 316 316 315 314 313 312 309 304 298 294 291 287 281 268 256 248 242 238 227 222 230 237 237 231 220 212 206 201 197 191 187 190 194 193 195 200 201 205 209 214 223 220 223 224 211 223 241 222 210 205 204 199 194 189 180 172 168 164 167 175 180 183 181 179 181 178 168 162 166 175 180
315 316 316 317 318 318 318 318 316 314 310 306 304 304 306 308 311 311 312 313 313 313 313 310 305 300 296 294 292 292 281 259 250 245 239 230 222 226 233 237 234 225 216 210 205 199 191 189 191 194 194 196 198 199 205 199 199 236 231 221 223 216 231 239 215 209 207 205 200 193 191 188 181 177 176 173 175 182 181 177 178 181 171 161 156 157 167 173
312 313 314 316 317 316 316 315 315 314 312 309 304 302 302 303 305 305 307 308 309 312 313 311 307 303 298 296 298 295 284 269 259 250 243 233 223 222 228 233 233 228 221 214 208 200 195 193 194 198 199 199 199 199 206 201 196 223 229 219 226 226 230 226 214 210 209 205 198 194 196 196 192 191 194 188 180 179 180 179 177 176 162 150 148 151 159 167
307 308 309 311 313 313 314 312 312 312 311 309 306 304 301 300 300 301 302 302 304 306 309 309 307 305 300 298 301 297 283 275 269 260 251 241 229 221 223 227 228 227 223 216 210 204 200 198 200 202 199 198 200 200 208 212 209 220 227 219 225 229 226 223 218 211 207 205 198 195 199 203 202 205 207 200 193 183 179 180 176 170 156 143 142 148 152 157
302 302 303 305 307 309 309 308 308 308 308 306 305 304 301 299 296 296 298 298 300 300 303 305 304 304 301 300 302 297 286 278 277 272 261 250 238 226 222 225 226 225 224 218 211 208 207 207 206 203 198 194 191 195 208 212 211 221 228 216 215 226 229 222 219 214 208 205 201 197 201 210 210 211 210 206 200 189 180 176 170 165 160 147 140 145 150 151
296 296 297 299 301 304 304 304 303 304 305 303 301 300 299 298 295 293 293 293 295 296 298 299 299 300 298 300 303 296 290 283 281 279 272 259 246 234 226 226 227 225 224 221 216 213 213 215 210 201 200 195 190 195 205 208 206 212 215 216 219 218 225 228 221 218 211 205 204 200 201 213 216 212 208 206 202 188 179 173 166 163 164 155 148 148 151 153
289 290 291 293 296 299 300 300 300 301 302 300 297 296 296 295 293 292 289 289 290 291 294 294 294 296 294 297 299 295 292 288 285 282 276 267 253 241 231 228 228 226 224 223 219 214 215 219 216 206 201 197 198 200 200 199 204 211 204 215 238 219 210 228 224 218 215 209 207 204 202 209 212 213 208 203 198 188 178 171 167 165 165 163 162 160 158 158
286 286 287 289 291 294 296 297 298 299 300 298 295 293 292 292 290 290 288 287 286 287 289 289 290 290 291 293 294 292 292 291 288 284 278 271 261 248 237 231 229 228 225 224 223 217 215 219 217 211 203 199 203 204 199 196 200 212 198 200 238 224 206 225 224 216 217 213 210 208 204 199 206 213 210 203 200 194 182 175 171 166 164 165 170 173 168 165
286 286 287 287 287 289 290 292 295 297 297 296 293 291 289 288 287 287 286 285 284 284 284 285 287 287 286 289 289 288 288 288 285 284 283 274 268 257 243 234 229 229 227 225 225 219 217 219 217 212 208 203 202 198 200 199 197 207 205 204 219 218 227 246 233 216 216 217 213 212 210 199 204 213 209 207 206 203 191 182 180 173 170 166 169 177 175 173
286 287 287 287 287 287 287 288 290 292 293 293 292 291 288 286 284 283 284 285 282 280 280 281 283 283 284 285 285 286 285 282 281 283 286 280 272 263 250 238 230 229 229 228 225 221 220 219 217 214 212 209 203 198 201 199 189 197 219 221 205 193 234 256 252 225 212 217 216 210 216 211 208 213 211 211 210 212 205 188 187 184 180 172 168 173 174 178
285 285 286 286 286 286 286 287 287 288 289 289 289 289 288 286 282 281 282 282 279 278 278 278 279 280 281 281 282 284 282 279 279 281 285 283 275 266 258 247 235 230 229 229 226 225 224 221 220 218 215 215 208 204 206 196 184 197 220 230 212 188 217 236 253 244 214 214 220 211 217 218 210 213 214 214 212 217 216 199 194 192 189 185 177 174 174 178
285 284 284 285 285 285 285 285 286 286 286 285 285 285 286 285 282 280 279 277 275 275 276 275 275 277 277 276 278 282 280 278 277 278 281 282 279 271 264 255 242 233 230 230 228 228 227 225 227 226 220 219 214 209 209 196 185 203 218 228 226 211 214 221 239 248 223 212 220 215 218 220 214 217 220 219 214 218 223 212 203 197 193 196 192 184 181 182
285 284 283 283 283 283 283 283 284 284 284 283 283 282 282 282 281 280 277 274 273 273 273 273 271 272 274 273 275 278 278 277 275 275 277 278 278 275 269 260 250 241 233 230 229 228 228 229 232 231 223 219 216 211 212 201 187 199 214 224 231 222 215 221 236 249 230 211 217 219 217 219 218 218 222 224 218 219 225 218 208 205 201 201 199 196 192 191
285 284 283 283 283 283 282 282 282 282 282 281 281 280 279 278 278 279 276 274 274 271 270 271 270 269 270 271 273 273 274 276 275 274 274 275 276 275 272 265 257 247 234 230 229 228 229 231 233 231 224 218 215 213 213 208 193 194 207 218 228 224 212 215 231 241 230 212 217 224 220 218 220 222 221 224 223 221 224 219 211 213 211 208 207 205 203 200
284 284 283 283 283 283 283 283 282 282 281 281 280 279 279 277 275 275 275 273 273 272 269 267 268 268 267 267 269 270 271 273 274 275 274 274 272 270 269 267 262 250 238 233 232 233 233 234 236 234 228 219 216 216 213 213 203 196 203 215 222 222 216 212 216 228 232 224 222 227 224 218 220 226 225 223 221 220 222 220 215 216 216 215 214 213 212 211
282 282 282 283 283 282 282 282 281 282 281 281 280 279 278 276 274 273 272 271 269 271 270 267 265 266 266 267 266 266 267 269 271 273 274 273 270 267 266 266 262 254 249 242 238 238 236 233 234 235 233 223 217 218 213 213 210 200 201 216 220 218 216 218 224 234 239 234 227 227 226 220 220 227 231 231 227 224 226 226 222 220 217 216 217 217 216 213
282 282 281 281 281 280 279 279 279 280 279 279 279 279 277 276 274 272 271 269 266 267 270 269 266 264 265 266 264 263 265 265 267 269 271 271 271 269 265 261 261 260 257 249 241 239 234 229 228 232 235 228 221 220 215 211 213 210 209 209 211 217 219 219 233 247 244 235 228 226 227 226 224 225 228 233 235 234 234 232 231 228 224 220 217 215 215 212
283 281 280 279 279 278 277 277 278 278 277 278 278 277 277 275 274 273 270 269 266 263 266 268 267 264 263 263 263 263 262 261 262 265 266 266 269 270 265 260 260 262 260 252 244 238 233 230 226 228 233 231 226 224 219 213 212 217 219 211 204 213 222 222 230 242 243 236 230 228 230 231 228 225 225 230 235 235 234 233 234 234 234 232 227 220 213 211
281 279 278 277 276 276 276 276 276 275 275 276 275 275 275 274 274 273 270 269 266 260 260 265 267 264 262 260 261 260 259 260 261 261 261 260 263 265 265 262 259 258 257 253 250 245 239 235 228 225 229 231 229 226 223 218 213 213 216 222 222 216 218 222 229 242 245 240 235 231 229 230 229 224 221 228 233 231 231 233 235 235 236 237 240 236 222 212
278 277 277 276 274 274 275 274 274 273 273 273 272 272 272 272 272 271 269 267 265 261 257 259 262 262 262 260 259 258 258 260 258 256 258 258 258 259 262 264 259 254 252 251 254 253 245 239 233 227 227 231 232 230 228 221 215 211 205 212 228 229 225 218 220 239 248 243 235 230 229 231 232 228 220 225 230 229 230 234 237 238 235 237 244 243 230 216
274 274 274 274 273 273 272 272 272 272 271 270 270 269 269 270 270 269 268 264 263 263 258 256 258 259 260 260 258 257 258 257 254 256 259 258 257 256 257 260 258 255 253 251 253 252 246 239 235 230 228 230 231 231 231 225 217 215 210 205 212 232 238 225 220 232 242 244 236 227 227 231 232 229 224 226 230 232 235 235 237 239 237 240 244 239 226 211
273 272 272 272 271 271 270 269 269 270 269 268 267 267 266 266 266 266 265 262 261 262 258 256 258 257 257 258 258 257 256 255 254 255 255 256 256 254 253 255 256 257 256 254 251 249 249 241 234 234 230 227 230 231 231 229 222 219 218 211 211 224 228 230 235 234 235 244 243 229 226 232 233 228 226 232 234 236 240 239 239 238 238 241 244 241 232 219
274 273 272 270 269 268 267 266 265 266 266 266 265 265 263 263 262 262 261 260 261 261 259 258 258 256 256 257 257 258 256 254 254 252 251 254 255 253 251 251 253 256 258 258 255 251 251 247 240 239 232 224 228 231 229 227 224 222 219 214 217 225 222 224 234 234 232 237 240 237 235 239 240 232 228 235 238 235 236 240 242 238 240 241 240 245 247 240
274 273 272 270 269 267 265 264 263 263 262 263 263 262 261 260 258 257 259 260 261 260 259 258 257 256 256 256 256 256 255 255 254 252 250 252 253 252 251 250 251 254 257 259 258 252 251 252 248 243 235 227 225 227 227 224 222 222 220 214 215 224 225 225 226 228 232 234 233 238 242 242 243 238 232 234 237 237 237 239 241 241 247 248 241 243 249 247
275 274 272 271 269 266 265 263 262 260 260 260 260 259 259 257 256 256 257 258 259 259 259 259 258 256 255 254 254 254 254 254 254 253 251 251 252 252 250 249 249 250 253 255 256 254 250 249 248 242 236 231 227 225 224 224 222 221 220 216 214 220 224 225 226 224 229 235 232 231 235 240 241 239 238 234 226 231 242 239 235 236 238 245 256 257 247 241
275 274 273 271 269 266 265 263 260 259 258 257 258 257 255 255 256 256 256 256 257 257 258 259 259 256 253 252 252 252 253 253 253 254 253 251 251 251 250 250 249 249 250 252 254 256 254 252 251 247 241 233 230 228 225 225 226 224 222 217 214 218 219 220 227 227 225 233 235 232 233 236 238 239 244 244 228 219 231 237 235 238 227 222 251 263 247 237
277 275 273 272 269 267 265 262 260 258 257 256 256 254 253 254 254 255 255 256 256 256 256 256 256 255 254 252 250 250 251 251 252 253 252 251 251 251 251 250 249 248 246 248 251 254 256 257 255 251 247 239 231 230 227 224 225 226 224 219 218 222 222 218 227 232 230 235 236 235 238 240 240 237 236 241 236 221 223 233 233 236 231 216 229 245 242 239
277 276 275 273 271 268 265 262 260 258 256 255 254 253 253 253 253 254 255 256 255 255 254 253 252 252 253 253 250 249 249 249 250 252 251 250 250 251 251 249 248 246 245 244 248 252 255 257 255 250 248 243 234 227 227 224 223 226 227 224 224 229 227 222 228 232 232 238 237 234 242 246 245 244 239 237 238 225 221 232 232 226 233 231 227 230 234 238
278 277 276 274 272 269 266 263 260 258 256 254 253 254 254 252 252 253 254 253 253 253 253 253 252 250 251 252 252 250 250 247 246 250 252 251 250 249 250 250 248 246 246 244 244 249 252 251 253 254 249 245 239 227 225 226 221 222 229 229 226 228 226 223 225 229 230 235 238 235 239 243 241 247 249 243 238 230 224 230 233 226 224 227 231 237 239 238
279 278 276 274 273 270 266 263 260 258 255 254 254 254 253 251 250 252 252 252 252 251 251 251 252 251 250 250 251 251 251 249 246 247 250 251 251 249 249 250 250 246 244 243 239 241 247 245 247 254 251 244 242 233 224 226 223 219 225 230 225 222 224 222 221 225 230 233 236 236 236 236 234 240 248 245 235 234 235 236 237 235 231 230 235 241 243 240
280 279 277 275 274 271 267 263 259 256 254 254 255 253 251 250 250 250 251 252 251 250 250 250 250 250 249 249 248 248 248 250 250 249 247 248 249 250 250 249 249 247 243 241 238 236 244 244 239 248 252 245 242 240 230 228 228 221 218 223 224 223 224 224 223 224 226 230 234 236 236 234 230 237 249 249 237 237 237 231 233 233 230 234 241 239 235 234
281 280 277 276 274 270 267 264 259 256 254 254 254 251 249 248 248 249 249 250 249 248 248 248 248 247 247 247 246 244 243 246 249 248 248 248 246 247 249 247 247 248 244 241 239 234 238 244 238 235 248 249 244 243 240 234 233 226 218 216 220 225 225 225 228 228 224 227 231 234 238 236 227 234 247 244 230 241 240 229 233 233 216 213 237 246 242 232
282 280 277 277 274 269 266 263 259 257 255 253 251 249 247 246 245 246 246 247 248 247 246 246 246 244 243 243 243 242 237 234 241 244 245 248 246 241 243 245 246 247 246 241 239 234 230 239 240 227 236 252 252 246 243 238 233 231 226 220 215 220 224 221 223 226 225 227 228 230 238 239 231 231 242 238 222 231 238 226 230 233 212 207 233 255 253 234
282 279 277 277 274 268 263 261 259 256 253 252 250 247 246 245 244 244 244 245 245 245 245 244 243 242 240 239 241 241 235 229 236 241 238 238 241 238 239 243 242 244 246 243 239 237 230 233 240 233 230 248 255 249 243 240 234 228 230 229 220 217 222 223 223 222 224 230 228 227 235 236 229 225 234 238 228 219 223 218 213 211 206 210 220 244 254 235
280 278 275 274 271 266 260 258 257 254 251 250 248 245 244 244 243 242 242 242 242 243 243 243 242 241 240 238 237 239 237 232 234 238 236 233 232 233 239 242 239 237 241 243 239 236 231 229 237 238 231 234 248 250 243 240 235 224 222 228 226 220 218 224 227 222 224 230 226 226 233 230 220 216 222 233 229 212 207 213 211 207 211 215 211 224 244 240
280 277 273 268 266 262 258 255 253 250 248 246 243 242 242 242 241 241 240 240 241 241 241 242 241 240 240 238 236 236 236 234 234 236 236 235 232 232 238 242 240 233 233 239 239 237 236 232 232 235 232 224 229 242 244 240 237 231 225 226 228 225 220 222 228 222 221 227 225 225 234 231 222 221 221 230 234 218 206 213 217 214 215 216 211 223 237 238
279 276 271 265 261 257 254 252 249 245 244 243 240 239 239 239 239 239 239 239 239 239 240 240 239 237 237 237 235 234 235 233 234 234 234 234 232 230 233 239 240 233 228 232 234 234 236 235 231 232 234 232 233 243 249 244 238 237 232 224 225 228 222 220 227 226 221 226 230 228 230 231 229 230 226 229 238 232 209 204 215 221 223 216 209 217 229 226
277 273 268 261 256 253 250 248 246 243 241 240 239 237 236 236 235 235 235 236 236 237 237 237 236 234 233 234 234 232 232 232 232 232 232 233 232 230 231 237 240 236 230 231 230 227 228 233 235 235 234 237 241 245 245 240 235 239 241 230 224 225 221 218 226 229 224 226 234 232 225 223 227 231 232 232 237 238 223 206 206 211 223 235 229 226 226 217
272 268 263 257 254 251 247 244 243 243 242 240 238 236 235 235 233 232 231 231 233 234 234 233 232 231 230 230 232 231 230 230 230 230 231 231 230 231 234 237 239 237 233 231 228 225 225 229 235 238 235 233 233 231 231 231 230 233 241 239 228 221 219 220 226 231 228 227 235 236 224 217 217 219 229 235 236 238 231 216 209 204 201 221 239 235 229 222
267 264 260 256 252 250 246 243 241 241 242 243 241 238 237 236 235 234 231 229 228 229 230 230 229 229 227 226 228 230 229 228 229 229 230 230 229 229 231 234 236 234 231 231 228 224 226 228 230 235 239 236 229 224 226 228 225 221 228 237 234 225 220 221 225 231 230 225 230 235 229 224 220 214 219 229 232 236 232 221 216 214 210 216 230 235 233 230
267 264 260 258 255 252 250 247 243 240 239 240 240 238 237 237 236 236 235 233 230 226 225 225 225 227 227 224 224 227 227 227 228 229 228 228 227 225 224 230 236 233 229 231 229 225 227 230 228 230 235 238 235 231 228 227 223 221 222 227 234 232 227 225 224 225 228 226 228 233 235 237 236 226 218 219 221 227 237 237 228 219 218 224 233 236 234 233
270 268 265 263 261 258 255 252 249 245 241 239 239 237 236 237 235 234 233 232 232 230 224 220 219 220 221 221 221 222 224 225 226 227 227 225 224 222 218 218 231 234 227 225 225 224 227 230 228 227 229 233 236 235 230 227 222 223 227 225 228 233 233 233 232 228 226 226 228 231 232 234 237 232 224 224 222 218 223 239 242 232 222 223 230 232 230 228
272 271 270 267 265 262 259 256 252 249 245 242 242 239 235 235 234 233 231 230 229 228 224 219 217 214 214 216 217 218 220 220 220 221 222 221 221 222 220 216 219 226 222 219 219 221 225 227 226 226 228 230 234 234 230 228 224 222 225 225 224 228 230 230 235 236 232 229 228 230 232 232 234 232 228 230 233 228 220 223 236 234 223 220 226 229 228 228
272 273 272 269 266 263 260 256 251 248 246 244 244 243 238 235 234 233 233 231 228 224 220 217 218 218 214 211 211 212 210 209 213 216 216 216 216 216 216 217 219 220 214 215 219 222 226 228 225 226 229 229 232 234 230 229 229 227 230 230 224 224 229 230 230 233 234 233 231 232 234 235 235 233 230 228 232 236 229 224 228 230 224 221 227 228 226 229
Height
5900 5899 5899 5898 5898 5897 5897 5896 5896 5896 5895 5894 5894 5893 5893 5893 5893 5892 5892 5892 5892 5892 5892 5892 5893 5893 5894 5894 5894 5895 5895 5895 5895 5896 5896 5895 5895 5895 5895 5896 5896 5896 5897 5898 5900 5901 5902 5903 5904 5904 5904 5904 5904 5904 5905 5905 5905 5906 5905 5905 5906 5906 5907 5907 5907 5908 5907 5907 5907 5907 5907 5907 5907 5907 5906 5906 5906 5907 5907 5907 5907 5908 5908 5908 5908 5908 5909 5909
5899 5899 5898 5898 5897 5897 5896 5896 5895 5895 5894 5894 5893 5892 5892 5892 5892 5891 5891 5891 5891 5890 5890 5891 5891 5892 5892 5892 5893 5893 5894 5894 5894 5895 5895 5895 5894 5894 5895 5895 5895 5896 5897 5897 5899 5900 5901 5903 5904 5904 5904 5905 5904 5905 5905 5905 5906 5906 5906 5906 5906 5907 5908 5908 5908 5908 5908 5907 5907 5908 5908 5908 5908 5907 5907 5907 5907 5907 5907 5907 5907 5907 5907 5908 5908 5908 5908 5909
5899 5898 5898 5897 5897 5896 5896 5895 5895 5894 5893 5893 5892 5891 5891 5891 5891 5891 5890 5890 5890 5889 5889 5889 5889 5890 5890 5891 5891 5891 5892 5893 5894 5895 5895 5895 5894 5894 5894 5894 5895 5896 5896 5897 5898 5899 5901 5902 5903 5904 5905 5905 5905 5906 5906 5906 5907 5907 5907 5907 5907 5907 5908 5908 5908 5908 5908 5908 5907 5908 5908 5908 5908 5908 5907 5907 5907 5907 5907 5907 5907 5907 5907 5907 5907 5907 5908 5909
5898 5898 5897 5897 5896 5896 5895 5895 5894 5893 5893 5892 5891 5891 5890 5890 5890 5889 5889 5889 5889 5888 5888 5888 5888 5888 5889 5889 5889 5889 5889 5891 5893 5894 5894 5894 5894 5894 5894 5894 5894 5895 5896 5896 5897 5899 5900 5902 5903 5904 5904 5905 5905 5906 5906 5907 5907 5907 5907 5908 5908 5909 5909 5909 5908 5908 5908 5908 5907 5908 5908 5908 5908 5908 5908 5907 5907 5907 5907 5907 5907 5907 5907 5907 5906 5907 5908 5909
5898 5897 5897 5896 5896 5895 5895 5894 5894 5893 5892 5891 5891 5890 5889 5889 5888 5888 5888 5888 5888 5888 5887 5887 5887 5887 5887 5887 5888 5888 5888 5889 5892 5892 5893 5894 5894 5894 5894 5894 5894 5894 5895 5896 5897 5898 5900 5901 5902 5903 5904 5905 5905 5906 5907 5907 5907 5908 5907 5907 5909 5910 5909 5909 5909 5908 5908 5908 5908 5908 5908 5908 5909 5909 5908 5908 5908 5908 5907 5907 5907 5907 5907 5907 5906 5907 5908 5909
5897 5896 5896 5895 5895 5894 5894 5894 5893 5892 5892 5891 5890 5889 5889 5888 5888 5887 5887 5887 5887 5887 5886 5886 5886 5886 5886 5886 5886 5886 5886 5888 5890 5891 5892 5893 5893 5893 5893 5893 5894 5894 5895 5896 5897 5898 5899 5900 5902 5903 5904 5904 5905 5906 5907 5907 5908 5908 5908 5907 5909 5909 5909 5909 5909 5908 5908 5908 5908 5908 5908 5908 5909 5909 5909 5909 5908 5908 5907 5907 5907 5907 5907 5907 5907 5907 5908 5909
5895 5895 5894 5894 5893 5893 5893 5892 5892 5892 5891 5890 5890 5889 5888 5887 5887 5887 5886 5886 5886 5886 5885 5885 5885 5885 5885 5885 5884 5885 5885 5886 5889 5890 5891 5892 5892 5892 5893 5893 5893 5893 5894 5895 5896 5897 5899 5900 5902 5903 5903 5904 5905 5906 5906 5907 5908 5908 5908 5908 5908 5909 5909 5909 5909 5909 5909 5909 5908 5908 5909 5909 5909 5909 5909 5909 5908 5908 5907 5907 5908 5907 5907 5907 5907 5907 5908 5908
5894 5893 5893 5892 5892 5892 5891 5891 5891 5890 5890 5889 5889 5888 5887 5887 5886 5886 5885 5885 5885 5885 5884 5884 5884 5884 5883 5883 5883 5884 5884 5886 5887 5888 5888 5890 5891 5891 5891 5892 5892 5893 5894 5894 5895 5896 5897 5899 5901 5902 5903 5904 5905 5906 5906 5907 5908 5908 5908 5908 5908 5909 5909 5910 5909 5909 5909 5909 5909 5909 5909 5909 5909 5909 5909 5909 5909 5908 5908 5908 5908 5908 5907 5907 5907 5907 5908 5909
5892 5892 5891 5891 5890 5890 5889 5889 5889 5889 5888 5888 5887 5887 5887 5886 5885 5885 5885 5884 5884 5883 5883 5883 5883 5882 5882 5882 5882 5883 5884 5884 5884 5885 5886 5888 5889 5890 5890 5891 5892 5892 5893 5894 5895 5895 5896 5898 5899 5901 5902 5903 5904 5905 5906 5907 5909 5909 5908 5908 5908 5908 5910 5910 5909 5909 5909 5909 5909 5909 5909 5910 5910 5909 5909 5909 5909 5909 5908 5908 5908 5908 5908 5907 5907 5907 5908 5909
5891 5890 5890 5889 5888 5888 5888 5887 5887 5887 5887 5886 5886 5886 5885 5885 5884 5884 5883 5883 5883 5882 5882 5882 5881 5881 5881 5881 5881 5882 5882 5882 5882 5882 5884 5886 5888 5888 5889 5889 5890 5891 5892 5893 5894 5895 5896 5897 5898 5900 5900 5900 5902 5904 5905 5907 5909 5909 5907 5908 5908 5908 5910 5910 5908 5909 5909 5909 5909 5909 5910 5910 5910 5910 5909 5909 5909 5909 5909 5908 5908 5908 5907 5907 5907 5907 5908 5909
5890 5889 5888 5888 5887 5886 5886 5885 5885 5885 5885 5885 5884 5884 5884 5884 5883 5883 5882 5882 5881 5881 5881 5880 5880 5880 5879 5879 5880 5880 5880 5880 5880 5880 5882 5884 5886 5887 5887 5888 5889 5890 5891 5892 5893 5895 5895 5895 5896 5897 5897 5899 5900 5902 5904 5905 5907 5907 5906 5907 5907 5907 5908 5908 5908 5909 5909 5909 5909 5909 5910 5910 5910 5910 5910 5909 5909 5909 5909 5908 5908 5908 5907 5907 5907 5907 5908 5909
5888 5887 5887 5886 5886 5885 5884 5884 5883 5883 5883 5883 5882 5882 5882 5882 5882 5881 5881 5881 5880 5880 5879 5879 5879 5878 5878 5878 5878 5878 5878 5878 5879 5879 5880 5882 5884 5885 5886 5886 5887 5888 5890 5891 5892 5893 5894 5894 5894 5895 5897 5899 5900 5903 5904 5903 5904 5905 5905 5906 5908 5907 5907 5908 5908 5909 5909 5909 5909 5910 5910 5910 5910 5910 5910 5909 5909 5909 5909 5908 5908 5908 5907 5906 5907 5907 5908 5908
5886 5885 5885 5885 5884 5883 5883 5882 5881 5881 5881 5881 5881 5880 5880 5880 5880 5880 5879 5879 5879 5879 5878 5878 5877 5877 5876 5877 5877 5877 5877 5877 5877 5878 5878 5880 5881 5883 5884 5884 5885 5886 5888 5889 5890 5891 5892 5892 5893 5895 5896 5897 5900 5902 5901 5901 5903 5905 5905 5906 5907 5907 5908 5908 5908 5908 5909 5909 5909 5909 5910 5910 5910 5910 5909 5909 5909 5909 5908 5908 5908 5908 5907 5907 5907 5907 5908 5909
5884 5883 5883 5882 5882 5882 5881 5880 5880 5879 5879 5879 5879 5878 5878 5878 5878 5878 5878 5877 5877 5877 5877 5876 5876 5876 5875 5875 5876 5876 5876 5875 5875 5876 5877 5877 5879 5881 5882 5883 5883 5884 5886 5887 5888 5890 5891 5891 5893 5894 5894 5895 5897 5898 5898 5900 5902 5904 5905 5906 5906 5906 5908 5908 5908 5908 5908 5908 5909 5909 5909 5910 5909 5909 5909 5909 5909 5909 5908 5908 5908 5908 5908 5908 5908 5908 5909 5909
5881 5881 5880 5880 5880 5880 5879 5878 5878 5878 5877 5877 5877 5876 5876 5876 5876 5876 5875 5875 5875 5875 5875 5875 5874 5874 5873 5874 5875 5874 5874 5874 5874 5874 5875 5876 5877 5878 5880 5881 5881 5883 5884 5885 5886 5888 5889 5890 5891 5893 5894 5895 5895 5895 5897 5899 5901 5903 5904 5906 5907 5907 5908 5908 5907 5908 5908 5908 5908 5909 5909 5909 5909 5909 5908 5908 5909 5909 5909 5908 5908 5908 5908 5908 5909 5909 5909 5910
5879 5878 5878 5878 5878 5878 5877 5876 5876 5876 5875 5875 5874 5874 5874 5874 5874 5874 5873 5873 5873 5873 5873 5873 5873 5873 5872 5872 5873 5873 5873 5873 5872 5872 5873 5874 5874 5876 5877 5879 5880 5881 5882 5883 5884 5886 5887 5888 5890 5892 5893 5894 5894 5895 5897 5898 5900 5902 5903 5907 5909 5907 5907 5907 5906 5907 5907 5907 5908 5908 5908 5908 5908 5908 5908 5908 5909 5909 5909 5908 5908 5908 5908 5908 5909 5909 5910 5910
5877 5876 5875 5875 5876 5875 5875 5874 5874 5873 5873 5873 5872 5872 5872 5872 5872 5871 5871 5871 5871 5871 5871 5871 5871 5870 5870 5870 5870 5871 5872 5871 5870 5870 5871 5872 5872 5874 5875 5876 5878 5879 5880 5881 5883 5884 5885 5886 5888 5890 5891 5891 5893 5895 5895 5896 5899 5902 5904 5907 5909 5907 5907 5906 5906 5906 5906 5907 5907 5908 5908 5907 5907 5907 5908 5908 5909 5909 5909 5909 5908 5908 5908 5908 5909 5910 5910 5911
5874 5873 5872 5872 5873 5873 5872 5872 5871 5871 5871 5870 5869 5869 5869 5869 5869 5869 5869 5869 5869 5868 5868 5868 5869 5868 5868 5868 5868 5869 5870 5869 5869 5869 5869 5870 5871 5871 5872 5873 5875 5877 5878 5879 5881 5882 5882 5884 5885 5887 5888 5889 5890 5890 5892 5895 5898 5904 5907 5906 5906 5907 5910 5908 5905 5905 5906 5906 5907 5907 5907 5907 5907 5907 5908 5908 5909 5909 5909 5909 5909 5909 5909 5908 5908 5909 5910 5911
5871 5870 5869 5868 5869 5869 5869 5868 5868 5868 5868 5867 5867 5867 5866 5867 5866 5867 5867 5867 5866 5866 5866 5866 5866 5866 5866 5866 5866 5867 5868 5867 5867 5867 5868 5868 5869 5869 5870 5871 5873 5874 5875 5877 5879 5879 5880 5881 5882 5883 5885 5886 5888 5889 5892 5894 5898 5905 5908 5906 5905 5908 5911 5911 5907 5904 5905 5906 5906 5907 5907 5907 5907 5907 5908 5908 5908 5909 5909 5909 5909 5909 5909 5909 5909 5909 5910 5911
5867 5867 5866 5865 5865 5865 5865 5865 5865 5865 5864 5864 5864 5864 5864 5864 5863 5864 5865 5864 5863 5863 5863 5863 5864 5863 5863 5864 5864 5864 5865 5865 5865 5865 5866 5866 5866 5867 5868 5869 5870 5871 5873 5875 5877 5878 5879 5878 5878 5881 5884 5886 5888 5890 5892 5894 5897 5904 5907 5906 5907 5907 5910 5912 5909 5904 5903 5905 5905 5906 5907 5907 5907 5906 5907 5907 5907 5908 5909 5909 5909 5909 5909 5909 5909 5909 5909 5910
5864 5863 5863 5862 5861 5862 5862 5862 5861 5861 5861 5861 5861 5860 5861 5861 5860 5860 5861 5861 5860 5861 5861 5861 5861 5861 5860 5861 5862 5862 5862 5863 5863 5863 5864 5864 5864 5865 5865 5866 5867 5869 5871 5872 5874 5875 5875 5875 5876 5880 5883 5886 5888 5890 5891 5892 5894 5900 5904 5906 5907 5907 5909 5912 5911 5905 5902 5903 5904 5904 5905 5906 5906 5906 5906 5906 5906 5908 5909 5909 5908 5908 5908 5909 5909 5909 5910 5910
5861 5860 5860 5859 5858 5858 5858 5858 5858 5858 5857 5857 5857 5857 5857 5857 5857 5857 5857 5858 5857 5857 5858 5858 5858 5858 5857 5858 5859 5860 5860 5860 5861 5861 5862 5862 5863 5863 5864 5864 5865 5866 5868 5868 5869 5871 5871 5873 5877 5880 5882 5885 5887 5888 5890 5891 5892 5896 5900 5904 5905 5905 5908 5911 5913 5907 5901 5902 5903 5902 5903 5904 5905 5905 5905 5905 5906 5907 5908 5908 5908 5908 5908 5908 5909 5909 5909 5910
5856 5856 5856 5855 5854 5854 5855 5855 5855 5855 5854 5854 5854 5853 5853 5853 5853 5853 5853 5855 5854 5853 5854 5855 5855 5855 5855 5855 5856 5857 5857 5857 5858 5859 5860 5860 5860 5861 5862 5862 5862 5864 5864 5864 5866 5867 5870 5874 5878 5879 5880 5882 5884 5885 5887 5889 5890 5892 5896 5901 5902 5903 5906 5908 5909 5904 5900 5901 5902 5901 5901 5903 5903 5903 5903 5904 5905 5907 5907 5907 5907 5907 5908 5908 5908 5909 5909 5909
5852 5852 5851 5851 5850 5850 5851 5851 5851 5851 5850 5850 5850 5850 5850 5849 5849 5849 5849 5851 5851 5850 5850 5852 5853 5853 5852 5852 5853 5853 5854 5855 5855 5856 5857 5857 5857 5858 5860 5860 5860 5860 5861 5863 5864 5865 5869 5874 5876 5877 5877 5880 5881 5883 5884 5886 5887 5889 5892 5898 5900 5902 5905 5906 5905 5901 5899 5899 5899 5900 5900 5900 5901 5901 5902 5903 5904 5905 5906 5905 5905 5906 5906 5907 5908 5908 5909 5909
5847 5847 5847 5847 5846 5845 5846 5846 5846 5847 5847 5846 5846 5846 5846 5846 5845 5846 5845 5846 5847 5847 5846 5847 5849 5850 5849 5849 5850 5850 5851 5851 5852 5853 5854 5854 5854 5855 5857 5857 5858 5858 5859 5861 5861 5862 5866 5869 5872 5873 5874 5877 5879 5880 5882 5884 5886 5887 5888 5893 5898 5901 5904 5906 5905 5901 5897 5896 5896 5898 5898 5898 5898 5899 5901 5901 5902 5903 5904 5904 5905 5905 5905 5905 5906 5907 5907 5907
5842 5843 5843 5842 5842 5841 5841 5841 5842 5842 5842 5842 5842 5842 5842 5842 5842 5842 5841 5841 5842 5844 5843 5843 5845 5846 5846 5846 5846 5847 5847 5847 5849 5849 5850 5851 5851 5852 5853 5854 5856 5857 5857 5858 5858 5859 5861 5864 5867 5870 5871 5873 5875 5877 5879 5881 5883 5885 5886 5889 5893 5899 5902 5903 5903 5900 5896 5895 5896 5895 5895 5897 5897 5897 5899 5900 5900 5901 5901 5902 5903 5904 5905 5906 5906 5905 5905 5905
5838 5838 5838 5837 5837 5837 5835 5836 5837 5836 5837 5838 5838 5838 5837 5837 5838 5838 5837 5836 5836 5839 5840 5840 5840 5841 5842 5842 5843 5843 5842 5844 5846 5846 5846 5848 5848 5849 5849 5851 5853 5854 5854 5855 5854 5855 5858 5860 5862 5866 5868 5869 5870 5873 5877 5879 5880 5882 5886 5889 5890 5894 5898 5900 5900 5898 5894 5894 5894 5892 5893 5894 5894 5895 5897 5898 5898 5899 5899 5899 5901 5903 5904 5905 5906 5905 5904 5903
5833 5833 5833 5832 5832 5832 5831 5830 5831 5831 5832 5833 5833 5833 5832 5833 5833 5833 5833 5832 5830 5833 5837 5837 5836 5836 5837 5838 5840 5839 5838 5841 5842 5841 5843 5844 5845 5846 5846 5847 5849 5850 5851 5851 5851 5853 5856 5857 5858 5862 5864 5864 5867 5872 5875 5876 5877 5880 5885 5889 5890 5890 5891 5894 5896 5896 5894 5892 5890 5890 5890 5891 5891 5893 5895 5895 5895 5896 5897 5898 5899 5901 5902 5903 5904 5904 5903 5901
5827 5827 5827 5827 5826 5827 5826 5825 5825 5825 5826 5827 5827 5827 5828 5828 5828 5828 5828 5826 5826 5829 5832 5832 5832 5832 5833 5834 5835 5834 5835 5838 5837 5838 5840 5840 5841 5843 5843 5844 5845 5847 5847 5848 5850 5850 5851 5853 5855 5858 5860 5862 5866 5869 5871 5873 5876 5880 5882 5884 5887 5890 5890 5891 5892 5894 5894 5888 5885 5887 5888 5887 5887 5890 5891 5891 5893 5894 5895 5896 5898 5899 5899 5900 5902 5903 5902 5899
5821 5820 5820 5820 5820 5820 5820 5820 5820 5819 5820 5821 5821 5822 5822 5822 5822 5823 5821 5819 5823 5825 5825 5827 5828 5827 5828 5829 5830 5830 5832 5833 5832 5835 5836 5836 5837 5839 5840 5841 5841 5843 5844 5845 5847 5847 5847 5849 5850 5853 5857 5860 5862 5863 5867 5870 5874 5879 5880 5880 5884 5887 5889 5890 5889 5890 5889 5883 5881 5884 5886 5885 5884 5886 5888 5888 5891 5894 5894 5894 5895 5896 5897 5899 5900 5901 5900 5897
5813 5813 5813 5813 5812 5813 5813 5813 5813 5813 5813 5814 5814 5815 5815 5816 5816 5815 5814 5815 5820 5819 5819 5822 5823 5822 5824 5825 5825 5826 5827 5828 5828 5830 5831 5831 5833 5834 5835 5837 5837 5839 5840 5841 5843 5844 5844 5845 5846 5849 5853 5856 5857 5858 5863 5867 5871 5874 5876 5878 5881 5883 5883 5884 5885 5884 5881 5879 5881 5884 5884 5883 5881 5882 5887 5887 5888 5891 5891 5891 5892 5894 5895 5895 5897 5897 5895 5893
5804 5804 5805 5804 5804 5805 5804 5805 5805 5806 5806 5806 5807 5807 5808 5808 5808 5808 5810 5811 5814 5813 5813 5816 5817 5818 5820 5820 5820 5820 5822 5823 5823 5824 5826 5826 5828 5829 5831 5832 5833 5835 5836 5837 5839 5840 5841 5841 5843 5846 5848 5851 5852 5854 5858 5861 5864 5867 5870 5873 5876 5878 5878 5877 5878 5878 5875 5876 5882 5884 5883 5881 5878 5880 5884 5884 5886 5888 5888 5888 5890 5891 5892 5891 5892 5892 5891 5890
5795 5796 5795 5795 5796 5795 5795 5797 5797 5797 5798 5799 5798 5799 5800 5799 5800 5803 5806 5805 5807 5808 5808 5809 5811 5813 5815 5815 5814 5815 5816 5817 5817 5819 5821 5822 5823 5824 5826 5828 5829 5830 5832 5833 5834 5835 5836 5838 5839 5841 5843 5846 5847 5849 5852 5854 5857 5860 5863 5867 5871 5873 5873 5872 5873 5874 5874 5876 5879 5881 5880 5877 5876 5878 5880 5881 5884 5886 5885 5885 5886 5888 5891 5891 5890 5888 5888 5888
5786 5786 5786 5786 5786 5786 5786 5787 5787 5787 5789 5789 5789 5790 5790 5790 5794 5798 5799 5799 5801 5802 5802 5803 5804 5805 5808 5809 5809 5810 5810 5811 5812 5813 5816 5817 5817 5819 5820 5823 5825 5826 5828 5828 5828 5830 5831 5833 5835 5837 5839 5841 5843 5846 5849 5851 5853 5856 5860 5864 5866 5867 5867 5869 5871 5872 5873 5875 5877 5878 5875 5872 5873 5877 5878 5879 5881 5883 5883 5883 5884 5885 5888 5892 5891 5886 5884 5885
5776 5776 5776 5776 5776 5777 5776 5777 5778 5778 5779 5780 5780 5780 5780 5784 5789 5791 5791 5792 5794 5795 5796 5797 5797 5798 5801 5802 5803 5804 5804 5805 5807 5807 5809 5811 5812 5814 5815 5817 5820 5822 5823 5823 5824 5826 5827 5828 5831 5833 5834 5837 5840 5843 5846 5848 5850 5852 5856 5858 5858 5860 5863 5867 5870 5870 5873 5873 5873 5873 5871 5869 5872 5876 5877 5877 5877 5879 5881 5882 5884 5885 5886 5889 5892 5887 5882 5883
5765 5766 5766 5766 5766 5767 5767 5766 5767 5767 5768 5769 5768 5770 5774 5779 5782 5782 5783 5785 5786 5787 5789 5789 5790 5792 5793 5794 5797 5799 5799 5801 5802 5800 5802 5805 5807 5808 5810 5811 5814 5816 5818 5819 5820 5821 5823 5824 5826 5828 5830 5832 5835 5838 5840 5843 5846 5848 5848 5849 5854 5860 5863 5865 5867 5869 5871 5869 5867 5870 5869 5869 5872 5873 5872 5873 5874 5875 5877 5880 5882 5885 5886 5888 5888 5884 5882 5883
5754 5754 5754 5755 5756 5756 5756 5756 5756 5756 5757 5757 5757 5763 5769 5772 5772 5773 5774 5775 5776 5779 5781 5780 5782 5785 5787 5787 5789 5792 5793 5795 5795 5794 5796 5799 5800 5803 5805 5805 5808 5810 5813 5816 5816 5816 5818 5820 5820 5822 5826 5827 5829 5832 5834 5836 5842 5844 5843 5848 5857 5860 5859 5860 5863 5864 5865 5863 5863 5866 5868 5869 5871 5871 5868 5870 5872 5872 5872 5876 5878 5881 5884 5886 5883 5879 5879 5882
5742 5742 5741 5742 5744 5744 5744 5744 5744 5744 5744 5744 5748 5756 5760 5760 5762 5764 5765 5766 5768 5770 5771 5773 5774 5777 5779 5781 5783 5785 5785 5787 5788 5789 5791 5792 5793 5796 5799 5800 5802 5805 5808 5811 5812 5812 5813 5816 5816 5816 5820 5822 5823 5826 5828 5830 5834 5839 5842 5848 5852 5852 5850 5852 5855 5858 5859 5859 5861 5864 5864 5865 5869 5869 5866 5866 5870 5870 5870 5872 5874 5876 5879 5881 5879 5876 5877 5880
5730 5729 5726 5729 5732 5730 5731 5732 5731 5731 5731 5732 5739 5746 5749 5750 5753 5755 5756 5757 5759 5760 5762 5765 5767 5769 5771 5773 5776 5778 5778 5779 5781 5783 5785 5786 5788 5791 5793 5795 5796 5798 5802 5805 5807 5807 5807 5810 5813 5811 5813 5816 5817 5819 5824 5826 5827 5833 5838 5842 5843 5844 5844 5846 5849 5853 5855 5856 5858 5860 5860 5860 5864 5866 5864 5863 5866 5868 5868 5869 5870 5873 5877 5880 5880 5877 5874 5875
5717 5715 5711 5716 5720 5716 5717 5719 5717 5718 5718 5722 5730 5734 5737 5740 5741 5743 5745 5746 5747 5749 5753 5756 5757 5760 5762 5765 5767 5769 5772 5774 5774 5775 5777 5779 5784 5785 5785 5787 5790 5792 5796 5799 5801 5802 5802 5803 5808 5809 5806 5808 5813 5816 5820 5823 5823 5825 5828 5832 5836 5838 5841 5845 5848 5848 5851 5853 5854 5856 5856 5856 5861 5864 5862 5862 5865 5867 5866 5866 5867 5870 5875 5880 5881 5878 5873 5873
5702 5701 5696 5701 5705 5702 5703 5704 5704 5706 5706 5711 5718 5720 5723 5726 5727 5730 5733 5735 5736 5738 5742 5745 5746 5750 5754 5756 5757 5760 5766 5767 5765 5768 5771 5773 5777 5779 5778 5781 5785 5786 5788 5792 5794 5796 5797 5797 5801 5805 5802 5802 5809 5813 5815 5818 5818 5820 5822 5825 5830 5835 5837 5840 5840 5842 5846 5848 5850 5852 5852 5854 5858 5861 5861 5861 5863 5865 5864 5864 5866 5869 5874 5878 5879 5876 5871 5871
5687 5687 5682 5685 5690 5689 5688 5688 5691 5693 5693 5698 5705 5706 5709 5711 5714 5718 5721 5723 5724 5727 5730 5732 5735 5740 5743 5746 5747 5751 5757 5758 5757 5761 5765 5767 5771 5772 5772 5775 5778 5780 5781 5784 5788 5791 5794 5793 5794 5799 5799 5798 5803 5807 5809 5811 5813 5816 5818 5821 5826 5830 5832 5832 5832 5838 5844 5843 5845 5848 5848 5850 5855 5858 5860 5859 5860 5862 5864 5864 5865 5868 5872 5874 5876 5875 5870 5869
5671 5672 5670 5669 5673 5675 5672 5673 5678 5678 5678 5686 5691 5692 5695 5698 5701 5705 5707 5710 5712 5714 5717 5720 5725 5729 5732 5737 5739 5741 5747 5749 5749 5754 5758 5761 5765 5765 5764 5766 5772 5775 5775 5777 5782 5784 5787 5788 5788 5792 5795 5796 5798 5800 5802 5804 5807 5809 5811 5815 5818 5821 5826 5829 5830 5836 5839 5837 5840 5843 5841 5845 5851 5854 5855 5854 5853 5857 5860 5861 5862 5865 5868 5870 5872 5873 5869 5867
5654 5657 5658 5654 5655 5658 5657 5659 5664 5663 5664 5672 5675 5676 5680 5683 5686 5691 5694 5697 5700 5702 5705 5709 5715 5719 5721 5726 5730 5732 5738 5740 5741 5746 5749 5753 5757 5758 5757 5759 5764 5769 5771 5773 5776 5777 5779 5782 5783 5785 5789 5792 5792 5793 5795 5798 5800 5801 5805 5808 5810 5813 5820 5825 5826 5830 5830 5830 5835 5837 5835 5841 5847 5848 5849 5848 5847 5850 5854 5857 5860 5862 5864 5867 5870 5868 5864 5863
5637 5640 5643 5640 5639 5641 5642 5644 5648 5648 5649 5653 5656 5660 5665 5667 5672 5678 5680 5683 5686 5689 5693 5697 5703 5708 5711 5715 5719 5722 5727 5731 5733 5737 5741 5745 5748 5750 5751 5750 5755 5763 5766 5768 5771 5771 5773 5775 5777 5780 5782 5784 5786 5788 5791 5793 5794 5796 5800 5803 5804 5807 5814 5819 5820 5820 5821 5825 5830 5829 5831 5839 5843 5843 5844 5843 5843 5846 5851 5854 5858 5859 5859 5860 5862 5861 5860 5861
5622 5624 5628 5626 5623 5625 5629 5631 5632 5631 5632 5635 5638 5644 5649 5651 5657 5662 5665 5669 5673 5676 5680 5684 5691 5696 5699 5704 5708 5712 5717 5721 5725 5728 5731 5736 5739 5741 5742 5743 5748 5755 5759 5761 5764 5765 5767 5769 5771 5774 5777 5780 5783 5786 5788 5789 5790 5792 5795 5798 5800 5803 5809 5814 5813 5810 5815 5822 5822 5822 5828 5836 5839 5839 5839 5840 5841 5843 5847 5850 5852 5854 5855 5856 5856 5855 5857 5858
5606 5608 5611 5611 5608 5610 5615 5616 5615 5615 5617 5619 5622 5629 5634 5636 5640 5644 5648 5654 5660 5664 5667 5672 5678 5683 5688 5693 5697 5701 5707 5711 5715 5718 5722 5727 5732 5734 5736 5739 5743 5748 5751 5753 5757 5759 5762 5764 5766 5768 5772 5775 5778 5782 5784 5784 5786 5789 5791 5793 5795 5799 5804 5807 5805 5805 5813 5818 5816 5817 5824 5828 5831 5835 5836 5838 5839 5840 5842 5845 5846 5847 5850 5853 5852 5849 5852 5856
5592 5594 5595 5595 5594 5596 5599 5601 5602 5605 5607 5608 5611 5618 5623 5625 5627 5630 5635 5640 5645 5650 5654 5659 5666 5671 5677 5683 5686 5691 5698 5702 5705 5710 5714 5720 5724 5727 5731 5733 5735 5739 5743 5746 5750 5754 5756 5759 5762 5764 5767 5770 5773 5776 5778 5780 5783 5786 5788 5789 5790 5793 5797 5799 5801 5804 5808 5811 5811 5815 5819 5820 5825 5830 5832 5834 5836 5837 5839 5841 5841 5842 5844 5847 5846 5846 5850 5854
5580 5581 5581 5581 5582 5585 5587 5589 5591 5594 5598 5599 5601 5606 5611 5613 5617 5622 5627 5630 5632 5636 5641 5648 5656 5662 5667 5673 5677 5681 5687 5692 5697 5701 5707 5712 5715 5720 5726 5728 5727 5732 5737 5740 5745 5749 5750 5753 5757 5759 5762 5764 5766 5770 5773 5775 5779 5782 5785 5786 5787 5788 5790 5792 5796 5800 5802 5804 5807 5812 5815 5816 5819 5824 5827 5829 5832 5835 5837 5837 5838 5840 5841 5842 5843 5845 5848 5849
5571 5570 5571 5571 5573 5576 5577 5579 5581 5584 5587 5590 5592 5597 5600 5603 5607 5612 5616 5619 5622 5626 5631 5634 5639 5645 5651 5658 5665 5671 5678 5684 5689 5693 5698 5703 5706 5711 5718 5721 5722 5725 5729 5733 5739 5743 5744 5747 5751 5755 5757 5758 5760 5765 5768 5769 5773 5777 5779 5781 5783 5785 5787 5788 5790 5793 5796 5798 5802 5806 5809 5810 5812 5817 5822 5824 5825 5829 5833 5834 5834 5836 5837 5839 5841 5841 5843 5844
5563 5563 5564 5564 5565 5568 5568 5571 5573 5574 5577 5581 5584 5589 5592 5593 5597 5600 5603 5608 5615 5621 5622 5620 5621 5628 5635 5643 5653 5661 5668 5673 5676 5681 5687 5691 5697 5704 5710 5713 5716 5719 5723 5727 5732 5735 5737 5741 5746 5749 5751 5752 5755 5759 5761 5764 5767 5769 5771 5775 5778 5781 5783 5785 5786 5788 5789 5792 5796 5798 5798 5801 5807 5812 5816 5818 5819 5822 5826 5829 5830 5830 5832 5835 5835 5836 5839 5841
5557 5557 5557 5558 5559 5561 5561 5562 5564 5566 5569 5573 5576 5579 5582 5585 5588 5591 5594 5600 5607 5612 5612 5612 5616 5622 5627 5633 5638 5641 5645 5651 5657 5664 5669 5674 5683 5691 5697 5700 5704 5710 5715 5720 5725 5729 5731 5735 5740 5742 5744 5747 5751 5753 5756 5759 5759 5758 5762 5766 5770 5774 5778 5780 5782 5784 5785 5787 5788 5789 5790 5796 5803 5804 5807 5811 5814 5815 5818 5822 5824 5825 5828 5830 5829 5832 5837 5838